Home > Time Zones > World Clock > Weather > Japan > Kobe > Past weeks

Flag for Japan Weather past 2 weeks in Kobe, Japan

Now
48 °F

Light rain. Fog.


Feels Like: 46 °F
Forecast: 39 / 53 °F
Wind: 5 mph from Northeast

Location: Osaka International Airport

Current Time: Jan 26, 2015 at 4:20:34 PM

Latest Report: Jan 26, 2015 at 4:00 PM


Visibility: 3 mi

Pressure: 30.04 "Hg

Humidity: 87%

Dew point: 45 °F

Location of KobeLocation

Historic Weather in Kobe — Graph

°F

Kobe temperature yesterday

Maximum temperature yesterday: 52 °F (at 1:00 PM)
Minimum temperature yesterday: 36 °F (at 6:00 AM)
Average temperature yesterday: 46 °F

Past Weeks' High & Low Weather Summary

 TemperatureHumidityPressure
High52 °F (Jan 19, 2:00 PM)100% (Jan 15, 7:00 AM)30.51 "Hg (Jan 15, 7:00 AM)
Low32 °F (Jan 14, 5:00 AM)32% (Jan 21, 1:00 PM)29.68 "Hg (Jan 22, 4:00 PM)
Average44 °F66%30.15 "Hg
* Reported Jan 11 3:00 PM — Jan 26 3:00 PM, Kobe, Weather by CustomWeather, © 2014

Note: Actual official high and low records may vary slightly from our data, if they occured in-between our weather recording intervals... More about our weather records

Advertising

Kobe weather history for previous 24 hours

 ConditionsComfort  
Time TempWeatherWind HumidityBarometerVisibility
3:00 PM
Jan 26
50 °FLight rain. Fog.3 mph82%30.04 "Hg4 mi
2:00 PM50 °FLight rain. Broken clouds.6 mph76%30.04 "HgN/A
1:00 PM52 °FLight rain. Broken clouds.9 mph62%30.07 "HgN/A
12:00 PM52 °FPartly sunny.8 mph58%30.12 "HgN/A
11:00 AM50 °FLight rain. Broken clouds.8 mph62%30.15 "HgN/A
10:00 AM48 °FLight rain. More clouds than sun.7 mph62%30.21 "HgN/A
9:00 AM46 °FPartly sunny.1 mph71%30.21 "HgN/A
8:00 AM45 °FBroken clouds.6 mph71%30.24 "HgN/A
7:00 AM39 °FPartly cloudy.3 mph81%30.24 "HgN/A
6:00 AM39 °FPartly cloudy.5 mph81%30.24 "HgN/A
5:00 AM39 °FPartly cloudy.3 mph81%30.24 "HgN/A
8:00 PM
Jan 25
46 °FClear.1 mph57%30.33 "Hg10 mi
7:00 PM48 °FClear.1 mph54%30.33 "Hg10 mi
6:00 PM50 °FClear.No wind47%30.30 "Hg10 mi
5:00 PM50 °FSunny.1 mph47%30.30 "Hg10 mi
4:00 PM52 °FSunny.1 mph41%30.30 "Hg10 mi
Weather by CustomWeather, © 2014

See weather overviewHow to use our weather pages